This demonstration page uses our WeatherBlox Daily Observations layout. Learn more.

Left ArrowRight Arrow

Hourly Observations for June 9, 2016

Temp ( °F °C ) Dew Point ( °F °C ) Humidity (%) Winds ( mph kmh ) Pressure ( in mb ) Visibility ( mi km ) Precip ( " mm )
12:52 am 00:52 Clear 72 22.2 59 15 64 64 SSE 10 17 29.95 1014 10 16 0.00 0.00
1:52 am 01:52 Clear 70 21.1 60 15.6 71 71 SSE 9 15 29.95 1014 10 16 0.00 0.00
2:52 am 02:52 Clear 69 20.6 60 15.6 73 73 SSE 9 15 29.95 1014 10 16 0.00 0.00
3:52 am 03:52 Clear 68 20 60 15.6 76 76 SSE 9 15 29.95 1014 10 16 0.00 0.00
4:52 am 04:52 Clear 68 20 61 16.1 78 78 SSE 10 17 29.95 1014 10 16 0.00 0.00
5:52 am 05:52 Clear 67 19.4 61 16.1 81 81 S 8 13 29.96 1015 10 16 0.00 0.00
6:52 am 06:52 Sunny 68 20 62 16.7 81 81 S 8 13 29.97 1015 10 16 0.00 0.00
7:52 am 07:52 Sunny 72 22.2 63 17.2 73 73 S 10 17 29.98 1015 10 16 0.00 0.00
8:52 am 08:52 Sunny 76 24.4 64 17.8 67 67 S 12 19 29.99 1016 10 16 0.00 0.00
9:52 am 09:52 Sunny 81 27.2 65 18.3 58 58 SSW 13 20 29.99 1016 10 16 0.00 0.00
10:52 am 10:52 Sunny 84 28.9 66 18.9 55 55 SW 8 13 29.98 1015 10 16 0.00 0.00
11:52 am 11:52 Sunny 86 30 64 17.8 48 48 SSW 12 19 29.98 1015 10 16 0.00 0.00
12:52 pm 12:52 Sunny 88 31.1 63 17.2 43 43 SSW 12 19 29.97 1015 10 16 0.00 0.00
1:52 pm 13:52 Mostly Sunny 89 31.7 63 17.2 42 42 S 9 15 29.95 1014 10 16 0.00 0.00
2:52 pm 14:52 Mostly Sunny 89 31.7 63 17.2 42 42 SSW 10 17 29.93 1014 10 16 0.00 0.00
3:52 pm 15:52 Sunny 89 31.7 61 16.1 39 39 SSW 13 20 29.92 1013 10 16 0.00 0.00
4:52 pm 16:52 Mostly Sunny 89 31.7 63 17.2 42 42 S 14 22 29.91 1013 10 16 0.00 0.00
5:52 pm 17:52 Mostly Cloudy 88 31.1 61 16.1 40 40 SSW 14 22 29.91 1013 10 16 0.00 0.00
6:52 pm 18:52 Sunny 86 30 63 17.2 46 46 S 10 17 29.90 1012 10 16 0.00 0.00
7:52 pm 19:52 Sunny 83 28.3 66 18.9 57 57 SSE 8 13 29.90 1013 10 16 0.00 0.00
8:52 pm 20:52 Mostly Clear 81 27.2 65 18.3 58 58 S 8 13 29.91 1013 10 16 0.00 0.00
9:52 pm 21:52 Clear 78 25.6 65 18.3 64 64 SSE 7 11 29.92 1013 10 16 0.00 0.00
10:52 pm 22:52 Clear 77 25 65 18.3 66 66 SSE 9 15 29.94 1014 10 16 0.00 0.00
11:52 pm 23:52 Clear 75 23.9 65 18.3 71 71 SSE 8 13 29.95 1014 10 16 0.00 0.00

Powered by AerisWeather